Regional Weather Roundup
Issued by NWS

Home | Current Version | Previous Version | Graphics & Text | Print | Product List | Glossary On
Versions: 1 2 3 4 5 6 7 8 9 10 11 12 13 14 15 16 17 18 19 20 21 22 23 24 25 26 27 28 29 30 31 32 33 34 35 36 37 38 39 40 41 42 43 44 45 46 47 48 49 50
000
ASUS43 KMKX 210700
RWRWI

WISCONSIN REGIONAL WEATHER ROUNDUP
NATIONAL WEATHER SERVICE MILWAUKEE/SULLIVAN WI
100 AM CST TUE NOV 21 2017

NOTE: "FAIR" INDICATES FEW OR NO CLOUDS BELOW 12,000 FEET WITH NO
SIGNIFICANT WEATHER AND/OR OBSTRUCTIONS TO VISIBILITY.

WIZ001-002-006>008-014>016-023>028-210800-
NORTHWEST WISCONSIN

CITY           SKY/WX    TMP DP  RH WIND       PRES   REMARKS
SUPERIOR ARPT  CLEAR     36  21  55 W21G30    29.40R WCI  24
ASHLAND        CLOUDY    39  28  64 W15G25    29.34R WCI  31
HAYWARD        CLOUDY    39  27  62 W13G23    29.39R WCI  31
SIREN          CLOUDY    37  25  60 W18G29    29.46R WCI  27
CUMBERLAND     CLOUDY    37  27  65 W21G29    29.44R WCI  27
RICE LAKE      CLOUDY    39  28  65 W14G21    29.46R WCI  31
CHETEK         CLOUDY    40  28  61 W14G21    29.44S WCI  32
LADYSMITH      CLEAR     38  28  67 W10       29.42S WCI  31
EAU CLAIRE     NOT AVBL
MENOMONIE      CLEAR     42  27  55 W14G21    29.49R
NEW RICHMOND   CLOUDY    39  26  60 W25G31    29.50R WCI  28
OSCEOLA        CLOUDY    39  28  64 W17G24    29.54R WCI  30
$$

WIZ003>005-009-010-017-018-210800-
NORTH CENTRAL WISCONSIN

CITY           SKY/WX    TMP DP  RH WIND       PRES   REMARKS
MANITOWISH WTR PTCLDY    35  29  78 W12       29.31S WCI  27
ARBOR VITAE    CLOUDY    39  30  69 W10       29.32R WCI  32
WOODRUFF       CLOUDY    39  30  69 W10       29.32R WCI  32
RHINELANDER    CLOUDY    39  28  64 W16G25    29.34F WCI  30
EAGLE RIVER    CLOUDY    37  27  66 W12G17    29.31R WCI  29
LAND O LAKES   CLOUDY    38  28  67 W9        29.30F WCI  32
PHILLIPS       CLOUDY    35  28  74 SW7       29.35F WCI  29
TOMAHAWK       CLOUDY    39  27  62 SW8       29.37F WCI  33
MEDFORD        CLEAR     37  27  67 SW12      29.40F WCI  30
MERRILL        CLEAR     40  28  63 W12G17    29.40S WCI  32
$$

WIZ029-030-035-036-043>047-210800-
CENTRAL WISCONSIN

CITY           SKY/WX    TMP DP  RH WIND       PRES   REMARKS
WAUSAU         CLEAR     40  28  62 SW13      29.40F WCI  32
MOSINEE        CLEAR     39  30  70 SW13      29.43F WCI  32
MARSHFIELD     CLEAR     40  27  59 W13       29.43S WCI  32
STEVENS POINT  CLEAR     42  27  55 SW12      29.44F
WAUPACA        CLEAR     47  30  51 SW12      29.46S
WAUTOMA        PTCLDY    46  28  49 SW8       29.49R
WISC RAPIDS    CLEAR     43  28  55 W9        29.47S
CAMP DOUGLAS   PTCLDY   N/A N/A N/A SW13      29.51S
$$

WIZ011>013-019>022-031-037>040-048>050-210800-
NORTHEAST WISCONSIN

CITY           SKY/WX    TMP DP  RH WIND       PRES   REMARKS
ANTIGO         CLOUDY    38  29  69 W13G21    29.38S WCI  30
SHAWANO        CLEAR     47  29  50 SW10G16   29.41S
OCONTO         CLEAR     45  31  57 SW9       29.41S
STURGEON BAY   PTCLDY    47  32  56 SW15G23   29.41S
GREEN BAY      CLEAR     43  33  68 SW9       29.44S
MANITOWOC      CLEAR     49  31  49 SW18G25   29.46S
APPLETON       CLEAR     43  28  56 SW14      29.44F
CLINTONVILLE   CLEAR     45  28  53 W12       29.43S
OSHKOSH        CLEAR     43  32  65 S10       29.48R
$$

WIZ032>034-041-042-053>061-210800-
SOUTHWEST WISCONSIN

CITY           SKY/WX    TMP DP  RH WIND       PRES   REMARKS
LA CROSSE      CLEAR     43  28  55 SW8       29.55R
SPARTA         CLEAR     42  30  61 CALM      29.53S
VIROQUA        CLEAR     40  31  68 SW9       29.55R WCI  34
BOSCOBEL       MOCLDY    45  30  55 SW5       29.58R
PRAIRIE DU CHI PTCLDY    46  28  49 CALM      29.59R
PLATTEVILLE    MOCLDY    43  33  67 SW9       29.60S
$$

WIZ056-057-062-063-064-067-068-210800-
SOUTH CENTRAL WISCONSIN

CITY           SKY/WX    TMP DP  RH WIND       PRES   REMARKS
REEDSBURG      CLOUDY    46  30  53 SW3       29.53S
BARABOO/DELLS  CLOUDY    46  29  53 SW8       29.53R
LONE ROCK      NOT AVBL
MINERAL POINT  CLEAR     45  32  61 SW12      29.57S
MADISON        CLEAR     47  32  56 SW8G20    29.55S
MIDDLETON      CLEAR     47  31  53 SW16      29.56R
WATERTOWN      CLEAR     45  32  61 SW14      29.54S
MONROE         PTCLDY    45  32  61 SW20G25   29.58F
JANESVILLE     PTCLDY    45  32  61 SW14      29.59F
$$

WIZ051-052-058>065-066-070>072-210800-
SOUTHEAST WISCONSIN

CITY           SKY/WX    TMP DP  RH WIND       PRES   REMARKS
MILWAUKEE      PTCLDY    45  32  60 SW17      29.57F
WAUKESHA       CLEAR     41  30  65 SW13G20   29.57F
MILWAUKEE/TIMM CLOUDY    45  30  57 SW17G23   29.56F
RACINE         CLOUDY    46  31  55 SW16G31   29.60S
BURLINGTON     CLOUDY    44  36  73 SW17G25   29.59F
KENOSHA        CLOUDY    46  30  53 SW15G36   29.60F
FOND DU LAC    CLEAR     44  30  57 SW13      29.50R
SHEBOYGAN      CLEAR     48  32  53 SW18G29   29.49S
WEST BEND      CLEAR     45  30  57 SW16G22   29.52F
JUNEAU         CLEAR     42  32  67 SW14G20   29.54S
$$

LSZ147-162-210800-
LAKE SUPERIOR

STATION/POSITION TIME  TEMP    WIND        PRES    WAVE
                       AIR SEA DIR/SP/G            HT/PER
                 (UTC) (F)     (DEG/KT/KT) (MB)    (FT/S)
DEVILS ISLAND    0600   41     240/ 26/ 31  991.3R
SAXON HARBOR     0640   42     230/  8/ 14  992.9R
$$

LMZ867-665-643>646-210800-
LAKE MICHIGAN

STATION/POSITION TIME  TEMP    WIND        PRES    WAVE
                       AIR SEA DIR/SP/G            HT/PER
                 (UTC) (F)     (DEG/KT/KT) (MB)    (FT/S)
N MID LAKE BUOY  0550   49 48  200/ 27/ 33  994.6F  11/ 8
NORTHPORT PIER   0640   49     230/ 10/ 19  994.6S
KEWAUNEE LAKESHO 0630   49     240/ 12/ 24  996.3S
SHEBOYGAN LAKESH 0600   50     230/ 18/ 20  998.8F
PORT WASHINGTON  0630   48     240/  8/ 16 1000.7F
MILWAUKEE LAKESH 0630   46     230/ 18/ 21   N/A
S MID LAKE BUOY  0550   47 48  230/ 29/ 35 1003.1F  10/ 8
KENOSHA   LAKESH 0600   47     220/ 15/ 22 1003.0
$$

TC  - TEMPERATURE IN CELSIUS
VSB - VISIBILITY IN STATUTE MILES
WCI - WIND CHILL INDEX
HX  - HEAT INDEX




USA.gov is the U.S. government's official web portal to all federal, state and local government web resources and services.